User: anonymous   Login
Location: Clyde
(45.1830°S, 169.3170°E)
Time: 18:58:46
(UTC+13:00)
Language:

Cosmos 1486 Rocket - Orbit

View from above orbital plane
View from above orbital plane
View from above satellite
View from above satellite

Ground track
Ground track

The orbit data is extracted from the following two-line orbital elements,

1 14241U 83079B   19290.73345572  .00000107  00000-0  45626-4 0  9991
2 14241  74.0577 122.0264 0017612 340.6542  19.3940 14.36172657895192
Epoch (UTC): 17 October 2019 17:36:10
Eccentricity: 0.0017612
inclination: 74.0577°
perigee height: 758 km
apogee height: 784 km
right ascension of ascending node: 122.0264°
argument of perigee: 340.6542°
revolutions per day: 14.36172657
mean anomaly at epoch: 19.3940°
orbit number at epoch: 89519

The dashed part of the orbit path shows where the satellite is in the earth's shadow,  

DLR